DGTMR EDWG-EDWR

Flight info

Callsign DGTMR
Flight time 0h 18m
Altitude 3400
Route VFR
Aircraft DA42/L-DGV/A

Departure

Time 2026-05-07 16:52
Airport Wangerooge Airport (EDWG)

Arrival

Time 2026-05-07 17:10
Airport Borkum Airport (EDWR)
Time Latitude Longitude Altitude Speed Heading
2026-05-07 16:47 53.78694 7.91036 2 ft 0 kts 236°
2026-05-07 16:49 53.78684 7.90997 2 ft 5 kts 266°
2026-05-07 16:49 53.78634 7.90994 2 ft 12 kts 158°
2026-05-07 16:49 53.78554 7.91048 2 ft 13 kts 152°
2026-05-07 16:50 53.78493 7.91087 5 ft 10 kts 159°
2026-05-07 16:50 53.78399 7.91149 6 ft 16 kts 157°
2026-05-07 16:50 53.78345 7.91270 5 ft 12 kts 109°
2026-05-07 16:50 53.78315 7.91324 3 ft 7 kts 182°
2026-05-07 16:51 53.78281 7.91332 2 ft 0 kts 93°
2026-05-07 16:51 53.78272 7.91557 -2 ft 50 kts 91°
2026-05-07 16:51 53.78236 7.92377 145 ft 75 kts 85°
2026-05-07 16:51 53.78225 7.93240 442 ft 71 kts 86°
2026-05-07 16:52 53.77932 7.93941 756 ft 93 kts 154°
2026-05-07 16:52 53.77259 7.93664 981 ft 114 kts 226°
2026-05-07 16:52 53.76888 7.92470 1246 ft 119 kts 255°
2026-05-07 16:52 53.76678 7.91075 1425 ft 128 kts 258°
2026-05-07 16:53 53.76421 7.89595 1613 ft 134 kts 253°
2026-05-07 16:53 53.76110 7.88017 1663 ft 147 kts 249°
2026-05-07 16:53 53.75730 7.86365 1764 ft 153 kts 247°
2026-05-07 16:53 53.75410 7.84630 1874 ft 157 kts 256°
2026-05-07 16:54 53.75185 7.82812 1972 ft 158 kts 258°
2026-05-07 16:54 53.75000 7.80965 1984 ft 161 kts 258°
2026-05-07 16:54 53.74797 7.79088 1982 ft 164 kts 257°
2026-05-07 16:54 53.74592 7.77182 1982 ft 165 kts 257°
2026-05-07 16:55 53.74382 7.75269 1988 ft 166 kts 258°
2026-05-07 16:55 53.74153 7.73348 1990 ft 167 kts 257°
2026-05-07 16:55 53.73921 7.71415 1987 ft 168 kts 257°
2026-05-07 16:55 53.73694 7.69500 1990 ft 168 kts 258°
2026-05-07 16:56 53.73458 7.67567 1987 ft 168 kts 257°
2026-05-07 16:56 53.73217 7.65633 1992 ft 168 kts 257°
2026-05-07 16:56 53.72738 7.61794 1996 ft 166 kts 257°
2026-05-07 16:57 53.72497 7.59883 1993 ft 166 kts 257°
2026-05-07 16:57 53.72263 7.57971 1994 ft 167 kts 258°
2026-05-07 16:57 53.72026 7.56044 1995 ft 167 kts 258°
2026-05-07 16:57 53.71791 7.54128 1998 ft 167 kts 257°
2026-05-07 16:58 53.71560 7.52212 1998 ft 167 kts 257°
2026-05-07 16:58 53.71329 7.50298 1997 ft 166 kts 257°
2026-05-07 16:58 53.71098 7.48371 2000 ft 168 kts 257°
2026-05-07 16:58 53.70867 7.46441 2001 ft 168 kts 257°
2026-05-07 16:59 53.70636 7.44504 1999 ft 168 kts 257°
2026-05-07 16:59 53.70404 7.42569 2002 ft 168 kts 257°
2026-05-07 16:59 53.70174 7.40660 2000 ft 168 kts 257°
2026-05-07 16:59 53.69941 7.38733 2001 ft 166 kts 257°
2026-05-07 17:00 53.69707 7.36817 2001 ft 167 kts 257°
2026-05-07 17:00 53.69470 7.34898 2000 ft 167 kts 256°
2026-05-07 17:00 53.69234 7.32977 2000 ft 167 kts 258°
2026-05-07 17:00 53.68996 7.31059 2000 ft 167 kts 257°
2026-05-07 17:01 53.68762 7.29139 2004 ft 167 kts 257°
2026-05-07 17:01 53.68530 7.27222 2006 ft 168 kts 257°
2026-05-07 17:01 53.68307 7.25290 1999 ft 167 kts 258°
2026-05-07 17:01 53.68078 7.23384 2005 ft 166 kts 257°
2026-05-07 17:02 53.67850 7.21470 2003 ft 167 kts 257°
2026-05-07 17:02 53.67627 7.19538 2005 ft 168 kts 257°
2026-05-07 17:02 53.67400 7.17610 2004 ft 167 kts 257°
2026-05-07 17:02 53.67174 7.15722 2003 ft 166 kts 256°
2026-05-07 17:03 53.66945 7.13803 2002 ft 167 kts 258°
2026-05-07 17:03 53.66708 7.11879 2003 ft 166 kts 257°
2026-05-07 17:03 53.66474 7.09963 2003 ft 168 kts 257°
2026-05-07 17:03 53.66241 7.08028 2006 ft 169 kts 257°
2026-05-07 17:04 53.66007 7.06061 2007 ft 171 kts 257°
2026-05-07 17:04 53.65770 7.04112 2010 ft 169 kts 257°
2026-05-07 17:04 53.65526 7.02187 2004 ft 166 kts 257°
2026-05-07 17:04 53.65293 7.00277 1969 ft 169 kts 258°
2026-05-07 17:05 53.65067 6.98296 1855 ft 173 kts 258°
2026-05-07 17:05 53.64839 6.96286 1755 ft 174 kts 258°
2026-05-07 17:05 53.64613 6.94313 1654 ft 170 kts 258°
2026-05-07 17:05 53.64382 6.92395 1547 ft 168 kts 258°
2026-05-07 17:06 53.64144 6.90468 1440 ft 167 kts 258°
2026-05-07 17:06 53.63904 6.88555 1342 ft 169 kts 258°
2026-05-07 17:06 53.63650 6.86599 1244 ft 171 kts 258°
2026-05-07 17:06 53.63386 6.84637 1142 ft 171 kts 257°
2026-05-07 17:07 53.63118 6.82694 1036 ft 168 kts 259°
2026-05-07 17:07 53.62875 6.80789 1005 ft 163 kts 260°
2026-05-07 17:07 53.62650 6.79008 993 ft 148 kts 261°
2026-05-07 17:07 53.62459 6.77382 988 ft 135 kts 263°
2026-05-07 17:08 53.62275 6.75916 988 ft 122 kts 262°
2026-05-07 17:08 53.62092 6.74561 898 ft 116 kts 260°
2026-05-07 17:08 53.61891 6.73304 666 ft 105 kts 260°
2026-05-07 17:08 53.61669 6.72150 424 ft 104 kts 257°
2026-05-07 17:09 53.61424 6.71008 404 ft 98 kts 239°
2026-05-07 17:09 53.60890 6.70341 406 ft 98 kts 205°
2026-05-07 17:09 53.60248 6.70175 306 ft 90 kts 154°
2026-05-07 17:09 53.59807 6.70803 115 ft 84 kts 123°
2026-05-07 17:10 53.59468 6.71512 -2 ft 56 kts 127°
2026-05-07 17:10 53.59348 6.71736 0 ft 3 kts 51°
2026-05-07 17:10 53.59377 6.71688 -2 ft 11 kts 306°
2026-05-07 17:10 53.59441 6.71552 -2 ft 24 kts 311°
2026-05-07 17:11 53.59575 6.71285 0 ft 26 kts 312°
2026-05-07 17:11 53.59678 6.71077 6 ft 17 kts 304°
2026-05-07 17:11 53.59650 6.70942 6 ft 10 kts 245°
2026-05-07 17:11 53.59687 6.70840 6 ft 14 kts 309°
2026-05-07 17:12 53.59756 6.70692 5 ft 14 kts 295°
2026-05-07 17:12 53.59745 6.70540 6 ft 9 kts 284°
2026-05-07 17:12 53.59765 6.70485 7 ft 3 kts 232°
2026-05-07 17:12 53.59764 6.70485 7 ft 0 kts 232°